Location: Azul
(36.7830°S, 59.8500°W)
Time: 10:47:47
(UTC-03:00)

AAUSAT CUBESAT 2 - Visible Passes

Search period start: 22 October 2021 00:00
Search period end: 01 November 2021 00:00
Orbit: 572 x 587 km, 97.5° (Epoch: 21 October)

Date Brightness Start Highest point End Pass type
(mag) Time Alt. Az. Time Alt. Az. Time Alt. Az.
22 Oct ? 04:17:58 10° E 04:19:49 13° ESE 04:21:41 10° SE visible
23 Oct ? 04:22:20 10° E 04:24:36 15° ESE 04:26:54 10° SSE visible
24 Oct ? 04:26:47 10° ENE 04:29:23 16° ESE 04:32:01 10° SSE visible
25 Oct ? 04:31:18 10° ENE 04:34:10 19° ESE 04:37:04 10° SSE visible
26 Oct ? 04:35:51 10° ENE 04:38:57 21° ESE 04:42:06 10° SSE visible
27 Oct ? 04:40:26 10° ENE 04:43:44 24° ESE 04:47:05 10° SSE visible
28 Oct ? 04:45:03 10° NE 04:48:31 27° ESE 04:52:02 10° SSE visible
29 Oct ? 04:49:41 10° NE 04:53:18 30° ESE 04:56:58 10° S visible
30 Oct ? 04:54:22 10° NE 04:58:05 35° ESE 05:01:53 10° S visible
31 Oct ? 04:59:02 10° NE 05:02:52 40° ESE 05:06:47 10° S visible
